星链-3538 (STARLINK-3538 )

导读

STARLINK-3538是美国太空探索技术公司星链星座中的卫星,于2022年3月9日发射。星链项目旨在构建全球卫星互联网星座,为全球提供高速宽带互联网服务,尤其服务偏远地区和网络基础设施匮乏区域,该卫星入轨后承担相应的通信覆盖任务,推进星链星座全球组网进程。

基本信息
目录编号:
51996
目录名称:
STARLINK-3538
国际标识:
2022-025AS
轨道中心:
EARTH
卫星名称:
星链-3538
卫星全名:
星链-3538 (STARLINK-3538 )
卫星状态:
在轨 (已飞行1640 天)
发射日期:
2022-03-09 UTC
国别 :
美国 (US)
星等 :
--
轨道信息
数据来源 国际轨道数据
星历时间: 2026-09-02T18:00:54+0800
1天前
查看轨道信息
半长轴: 6843.366km
偏心率: 0.0001218
轨道倾角: 53.159°
近地点辐角 72.745°
升交点赤经 294.278°
平近点角 287.368°
近地点: 464.395km
远地点: 466.063km
周期: 93.900分钟
每日圈数: 15.335509
详细信息
固有亮度:
5
最大亮度:
2.5
卫星平台:
Starlink v1.5
覆盖范围:
全球
运营商:
太空探索技术公司
运营商所在国:
美国
制造商(研发单位):
太空探索技术公司
制造商所在国:
美国
使用方式:
暂无
卫星简介
星链(Starlink)计划是由太空探索技术公司(SpaceX)提出的一个巨型低轨卫星互联网星座项目,计划在2019年至2024年间在太空搭建由约1.2万颗卫星组成的“星链”网络,其中1584颗将部署在地球上空550千米处的近地轨道,并从2020年开始工作。该卫星仍在工作。
2D轨道图
3D轨道图
轨道高度分析图
轨道倾角分析图
轨道综合分析图
查看轨道综合分析图
交会数据列表
事件ID 空间交会对象 最接近时刻(TCA) 交会距离 交会风险概率(CRP) 交会风险指数(CRI) 操作
CDM_260830-230605-199606-882021
2026-08-30T
23:06:34+0000
2.216 km
极远距离
2.176221E-6 低风险 0.42
CDM_260904-230805-199605-360821
2026-09-04T
23:08:44+0000
2.327 km
极远距离
1.736684E-6 低风险 0.4
CDM_260904-080805-199605-325122
2026-09-04T
08:08:23+0000
2.473 km
极远距离
1.597581E-6 低风险 0.39
CDM_260829-071705-199606-566421
2026-08-29T
07:17:57+0000
2.160 km
极远距离
1.478054E-6 低风险 0.38
CDM_260903-123605-199605-236322
2026-09-03T
12:36:22+0000
2.604 km
极远距离
1.463123E-6 低风险 0.38
CDM_260829-191305-199605-816621
2026-08-29T
19:13:06+0000
2.631 km
极远距离
1.437901E-6 低风险 0.38
CDM_260829-183105-199606-620021
2026-08-29T
18:31:39+0000
2.636 km
极远距离
1.40621E-6 低风险 0.38
CDM_260904-092105-199606-802123
2026-09-04T
09:21:14+0000
2.587 km
极远距离
1.405265E-6 低风险 0.38
CDM_260904-204905-199606-895722
2026-09-04T
20:49:20+0000
2.591 km
极远距离
1.403623E-6 低风险 0.38
CDM_260901-050705-199606-621921
2026-09-01T
05:07:13+0000
2.692 km
极远距离
1.383755E-6 低风险 0.38